Theta_e
318 319 312 308 309 311 312 314 317 318 318 319 319 319 324 328 325 321 319 319 320 321 322 323 321 319 318 316 313 314 316 313 312 314 314 314 315 315 315 315 317 317 316 317 319 316 314 314 313 313 314 314 314 314 314 313 314 317 317 318 321 325 326 322 318 317 319 318 318 318 315 320 326 324 325 326 325 325 325 326 331 330 329 332 329 327 338
316 318 313 308 309 311 312 314 316 319 320 319 319 323 326 325 324 325 321 317 317 320 320 320 322 322 320 317 314 313 312 312 313 314 314 314 314 314 315 314 316 317 316 318 319 316 314 314 313 313 314 315 317 316 315 316 320 321 320 321 323 323 324 322 316 314 316 316 316 317 316 319 322 321 323 324 328 330 330 334 335 330 331 333 325 325 337
315 317 313 308 309 311 312 314 316 318 320 319 320 324 325 321 323 326 322 317 316 317 316 316 318 322 323 318 315 314 312 312 313 313 314 313 312 315 315 313 316 317 317 318 318 317 316 314 315 314 313 316 317 316 316 316 320 325 327 327 326 323 323 323 317 314 315 316 316 315 317 319 317 319 324 327 331 331 330 332 329 326 334 336 325 328 342
315 316 314 308 308 311 311 314 316 317 320 320 319 321 323 323 324 326 324 319 317 315 314 315 316 319 323 320 314 313 314 312 312 313 314 313 313 315 315 314 317 318 318 319 319 318 317 316 319 318 316 316 315 317 318 315 320 332 331 325 327 327 324 325 324 319 315 317 318 318 319 319 315 316 323 328 332 335 333 330 325 327 334 335 332 339 347
315 316 314 308 307 311 311 313 315 317 319 320 319 320 322 323 325 326 326 323 320 318 318 321 320 317 319 320 314 314 315 314 314 314 315 315 314 315 315 314 317 318 320 320 319 321 320 318 320 319 318 319 317 318 318 314 323 336 327 319 327 329 322 323 325 319 316 318 318 316 317 317 315 317 322 327 333 336 331 325 327 334 330 327 339 349 346
314 315 314 309 307 310 311 312 315 317 318 319 320 322 322 322 322 322 323 322 322 321 323 325 323 317 316 318 315 315 316 316 316 316 316 315 315 317 317 315 314 316 320 321 322 325 323 318 319 320 319 320 319 318 317 315 319 326 319 317 327 327 319 321 321 316 316 318 315 314 316 318 319 324 327 329 331 332 331 329 335 339 329 326 344 351 347
314 315 315 311 307 309 311 312 314 316 318 319 322 323 321 321 322 321 321 322 323 323 323 323 321 318 322 323 316 314 317 316 314 314 317 318 315 317 318 315 312 314 321 325 324 324 321 317 319 321 319 319 320 318 317 316 316 317 317 319 323 325 324 324 322 318 316 317 317 316 317 317 318 322 325 329 333 335 336 337 340 342 338 338 347 351 350
314 315 315 312 307 307 310 311 313 316 317 318 321 323 321 321 323 323 323 325 327 325 321 322 320 318 323 323 315 314 317 316 315 314 316 319 318 316 315 314 313 313 318 322 319 316 318 316 316 318 318 319 319 318 317 317 316 317 319 320 321 326 330 328 323 319 316 317 319 317 316 317 318 319 321 325 331 338 341 341 342 344 344 346 348 350 350
314 314 316 314 309 306 309 311 312 315 318 319 321 321 321 322 321 321 325 329 330 327 321 320 322 318 319 320 318 318 317 316 317 315 314 316 317 315 314 314 315 315 316 317 315 314 316 316 313 313 315 315 316 317 316 315 317 318 319 321 323 328 332 331 324 318 315 316 318 318 317 317 317 319 322 321 324 333 339 340 342 342 345 348 346 345 347
313 314 315 315 311 306 307 310 311 314 318 320 321 321 321 323 322 320 325 328 327 325 321 318 319 316 316 321 322 320 317 315 317 318 314 313 315 314 315 316 317 318 318 317 315 313 313 313 311 309 311 313 313 315 315 314 317 320 319 321 324 326 331 335 327 317 314 316 318 320 319 316 316 319 321 320 322 329 335 339 342 343 346 346 342 342 347
313 314 314 315 313 307 306 309 311 312 315 318 320 321 320 322 323 322 325 325 322 322 322 320 321 319 316 318 319 317 316 316 321 323 318 314 313 313 315 320 320 318 317 315 314 312 311 311 311 310 311 313 313 314 315 315 316 318 318 320 324 325 329 336 331 318 314 319 322 321 317 315 316 318 319 320 320 324 331 338 342 342 342 341 341 345 347
312 314 314 315 315 310 305 307 310 310 312 315 317 319 318 319 322 323 326 326 322 322 321 318 320 319 314 315 317 317 316 317 320 322 317 314 314 312 314 321 322 318 316 315 313 313 312 312 315 315 314 314 314 314 314 315 315 316 316 318 323 326 326 331 331 321 316 319 321 319 316 315 317 317 319 322 322 325 333 340 340 338 338 339 342 345 345
310 313 314 314 315 312 305 306 310 310 312 315 317 318 319 319 321 323 326 327 324 324 322 317 315 315 313 315 317 316 315 315 317 319 317 315 315 313 313 317 318 315 314 315 317 317 317 318 320 321 319 319 317 315 314 315 314 315 316 317 321 324 324 327 329 324 319 317 316 318 319 318 317 317 318 321 322 324 331 338 338 335 335 340 344 344 343
309 312 314 314 315 314 307 305 309 310 312 316 319 320 321 320 321 324 325 327 325 323 322 318 316 317 316 316 316 315 314 316 318 318 318 316 314 314 314 313 314 313 313 317 321 322 320 320 320 319 319 319 318 316 316 316 315 315 316 318 320 323 324 323 323 324 324 319 314 317 319 317 317 319 318 318 320 319 322 331 337 334 333 340 344 343 342
309 311 314 314 315 315 309 305 307 310 312 317 320 321 321 320 321 322 323 326 327 323 320 319 319 321 320 317 317 318 317 318 320 318 317 317 315 313 312 312 312 313 314 318 324 324 319 319 318 317 316 317 316 316 318 318 316 315 316 316 318 320 324 323 320 321 326 322 316 316 316 314 318 320 318 318 319 317 319 327 335 334 333 339 343 342 342
309 311 313 314 314 315 311 305 306 309 311 316 321 321 320 320 321 322 322 324 325 322 319 319 320 321 320 317 317 321 321 321 321 320 319 320 318 314 313 312 312 315 318 322 325 325 322 320 319 319 318 319 319 318 319 319 318 317 317 319 319 319 322 325 321 320 322 321 318 317 316 317 321 322 321 320 318 317 320 325 331 333 334 339 342 341 340
308 311 313 313 314 315 313 306 305 309 310 314 319 321 321 320 320 321 322 323 323 319 318 318 318 319 320 318 318 322 323 321 321 321 319 319 318 317 315 315 315 316 319 325 327 325 322 321 320 320 320 320 321 320 319 320 320 318 317 320 321 320 320 320 319 320 322 321 319 319 319 322 323 323 323 321 318 320 324 325 326 331 334 338 341 341 340
308 310 313 313 314 315 313 307 305 308 310 311 316 320 321 320 319 319 321 324 323 319 317 316 317 318 319 320 321 320 318 320 324 324 320 319 320 320 317 317 317 316 319 327 329 324 321 321 320 320 321 320 320 320 319 319 319 318 318 319 321 321 319 317 317 318 319 319 317 318 320 323 323 323 323 321 320 323 327 325 324 326 330 336 340 340 339
308 309 312 313 313 314 314 309 304 307 310 310 314 318 320 320 319 317 319 323 323 319 316 316 317 318 316 317 320 318 316 321 327 324 320 320 321 319 316 316 317 318 321 327 326 321 321 322 319 319 321 321 320 319 318 318 317 317 319 320 320 321 318 316 316 315 316 318 317 317 319 321 322 322 322 321 321 322 323 323 322 322 325 334 339 338 338
309 309 311 313 313 314 315 311 305 305 309 310 312 315 318 319 318 317 318 322 324 322 317 315 317 320 318 317 320 320 319 322 328 326 322 322 321 318 317 318 319 320 323 325 322 319 321 323 321 320 321 320 319 318 317 317 317 318 318 319 319 319 317 316 316 315 314 316 316 316 319 322 322 323 324 323 323 322 321 322 322 322 326 333 337 337 337
309 309 310 312 313 313 315 313 307 305 308 310 311 312 315 317 317 317 318 320 321 322 318 316 318 320 320 319 320 321 320 321 325 325 323 321 319 319 321 323 322 322 322 322 321 320 322 323 322 321 321 320 319 319 319 319 319 318 317 317 319 320 319 319 318 316 315 316 317 318 321 321 320 322 323 322 321 320 319 320 321 324 328 332 334 335 333
309 309 310 312 313 313 314 314 309 305 306 310 311 311 314 316 316 317 319 319 320 320 318 317 319 320 320 319 318 319 319 319 320 322 323 322 319 319 323 326 325 322 321 321 322 322 321 322 322 321 321 321 320 320 319 319 319 319 318 318 319 320 319 320 320 318 318 320 320 321 322 321 320 320 320 320 319 318 318 318 320 324 327 330 332 331 328
309 309 310 311 312 313 314 314 311 306 305 309 311 311 314 316 316 317 319 320 321 321 317 317 319 319 318 318 318 317 318 318 317 318 321 324 323 319 320 324 323 320 320 322 323 323 323 322 321 321 322 322 320 321 320 319 321 322 319 318 319 319 318 320 321 320 320 321 321 321 321 321 321 320 319 319 318 317 317 318 319 320 322 326 329 328 326
309 309 309 311 312 313 314 314 312 307 305 308 310 311 314 316 316 317 317 319 323 324 320 318 320 319 319 319 318 316 317 317 317 317 317 321 324 322 320 321 320 321 324 324 321 321 323 322 319 320 323 321 320 321 322 322 323 323 320 319 320 319 318 319 321 321 321 323 323 322 321 321 321 321 320 319 319 318 317 317 317 318 320 324 326 325 325
309 309 309 310 311 312 313 314 313 308 305 307 310 312 316 318 317 318 318 319 323 327 325 321 320 319 318 318 319 318 317 316 317 318 317 318 321 323 323 320 319 321 325 323 319 322 324 322 319 321 323 321 320 321 322 322 322 322 322 322 322 321 320 321 323 322 321 323 323 321 320 320 321 321 321 320 320 320 319 318 318 318 320 322 324 324 323
309 309 309 310 311 312 313 315 314 309 306 307 310 313 318 319 318 318 318 318 320 325 325 323 321 319 319 320 320 319 317 316 318 319 319 319 319 320 322 321 320 320 321 320 321 324 326 323 321 322 323 321 321 321 321 321 321 321 322 323 321 322 322 322 323 323 322 323 323 322 322 322 321 321 320 320 321 321 320 319 318 317 318 319 321 322 322
309 309 309 310 312 313 313 315 315 310 306 308 310 313 318 320 318 318 320 320 320 321 323 323 321 319 319 320 320 318 316 317 319 319 319 320 320 318 319 322 324 324 324 323 322 323 325 323 321 322 322 321 321 321 321 321 321 322 323 323 321 323 324 322 321 322 323 324 323 324 325 324 322 321 320 320 321 321 319 319 319 318 318 319 318 320 321
309 309 310 310 311 312 313 315 315 310 306 309 313 315 317 319 319 318 319 319 319 321 323 323 321 319 319 320 321 319 316 317 319 319 318 319 318 317 319 324 327 326 326 324 322 323 324 323 321 321 321 321 321 322 321 320 321 322 324 323 322 324 325 323 322 323 324 323 322 322 324 323 321 320 320 320 320 321 320 320 319 319 319 319 318 318 319
309 310 310 310 311 312 314 315 315 310 307 311 316 318 318 319 318 319 319 319 319 321 323 323 321 320 320 320 321 321 319 318 318 319 318 319 319 319 321 324 325 324 323 325 325 325 325 322 320 321 321 320 321 323 322 322 323 323 323 322 322 322 322 322 323 324 324 322 321 321 322 322 320 320 320 320 321 321 321 321 321 320 320 320 319 319 318
310 310 310 310 312 313 314 316 314 309 308 314 319 321 321 320 318 318 318 319 320 321 323 324 322 320 319 320 322 322 322 321 320 320 321 322 323 322 322 323 323 321 323 327 327 325 324 322 321 322 321 319 321 324 323 323 324 323 321 321 321 321 321 320 321 323 323 322 321 320 321 321 320 320 320 321 321 321 320 321 322 322 322 321 320 320 319
310 310 310 311 312 314 315 315 312 308 309 315 320 323 325 322 318 317 316 317 319 320 322 324 323 320 320 322 322 322 323 323 323 323 323 323 323 322 321 322 322 321 324 328 327 323 323 323 323 323 322 320 321 322 322 323 324 323 321 321 321 321 321 320 320 320 321 321 321 321 321 321 321 322 321 320 321 321 321 321 321 321 321 321 321 320 319
310 310 310 311 313 315 315 313 310 308 311 315 318 320 320 319 318 316 314 316 320 321 323 325 324 321 322 323 320 320 321 322 321 323 323 323 322 322 322 322 323 322 323 325 325 322 321 322 323 323 322 320 320 321 322 323 324 323 322 321 321 320 320 320 320 319 319 320 321 322 322 321 321 321 320 320 320 321 321 322 321 321 321 321 320 320 319
310 310 311 312 314 316 314 311 309 310 312 314 316 316 315 315 316 314 314 318 320 319 320 325 326 323 322 321 320 319 321 321 321 322 323 323 322 322 322 322 322 322 321 322 323 321 319 320 322 323 321 319 319 321 323 323 323 322 321 320 321 319 319 319 319 318 318 318 320 321 321 321 320 319 319 319 319 320 320 321 322 321 322 321 321 320 320
311 310 311 313 315 313 311 310 311 313 313 314 316 316 315 315 315 314 316 319 320 319 320 323 325 324 321 321 321 321 321 322 323 323 323 323 321 322 323 322 322 323 322 320 320 321 320 321 323 323 321 319 319 321 323 324 323 321 319 318 318 318 318 318 318 317 316 316 317 318 318 319 318 318 317 317 317 317 319 320 321 321 321 321 321 320 321
311 311 313 314 313 311 310 313 315 316 316 317 317 316 316 316 315 316 318 319 320 322 324 322 323 324 323 322 323 323 321 321 322 322 322 322 321 320 322 323 323 323 321 319 320 322 322 321 322 322 321 320 321 324 324 324 323 321 320 319 318 318 319 319 318 316 314 314 315 315 316 316 317 316 315 314 314 315 317 318 319 319 319 319 320 320 320
311 312 314 313 310 311 313 315 317 318 320 320 318 316 316 316 315 316 318 319 320 325 326 324 323 325 324 323 323 322 321 321 321 320 320 321 321 320 320 321 323 321 318 319 321 322 321 319 320 322 321 320 322 326 326 325 325 324 323 322 319 317 318 319 318 316 314 313 314 314 314 314 314 314 314 314 314 314 314 314 315 316 316 316 317 318 319
312 313 312 310 311 314 316 316 317 319 320 319 317 316 317 318 318 318 318 318 320 321 322 323 324 322 321 322 322 321 321 321 321 320 321 322 322 320 319 320 322 320 319 321 323 321 319 318 319 322 322 321 323 324 323 323 325 325 323 320 316 314 316 317 315 315 314 314 314 314 313 312 313 313 313 313 313 314 314 313 313 313 314 314 314 316 317
313 312 310 311 315 319 320 319 318 319 318 316 316 318 319 319 321 323 321 320 320 318 318 321 323 320 319 321 322 321 320 321 320 321 322 322 321 319 319 320 321 320 320 321 320 318 319 319 318 319 322 322 322 322 320 317 318 319 319 317 314 314 315 315 314 314 315 316 315 314 313 313 313 313 312 312 313 313 313 313 314 314 314 314 314 315 316
311 311 312 315 319 321 321 319 317 316 316 316 317 320 320 320 322 324 321 318 318 319 318 320 323 321 321 323 322 319 319 321 321 322 322 321 320 320 321 320 320 319 319 319 318 318 321 321 319 318 320 322 323 322 319 315 314 315 315 316 315 315 315 314 314 314 315 315 314 313 313 312 312 312 311 311 312 312 313 314 314 314 314 314 314 314 314
310 312 315 318 318 318 318 317 316 317 318 319 319 320 321 321 322 322 320 319 321 321 319 319 321 320 320 323 323 320 318 320 321 322 323 321 318 318 320 320 319 319 319 319 318 317 319 321 319 317 319 324 326 321 316 315 315 315 314 315 315 314 313 314 314 314 313 313 313 312 312 312 312 311 312 311 311 312 313 313 313 313 313 313 313 313 313
313 315 317 318 317 316 316 316 317 318 320 321 322 323 322 322 321 320 320 323 325 322 318 319 321 321 320 321 322 322 321 319 318 320 323 321 317 317 319 318 317 318 319 318 317 317 318 319 317 316 319 327 326 317 312 314 316 314 313 314 314 313 313 313 313 312 312 313 313 312 311 311 311 311 312 312 312 312 312 312 313 313 313 313 313 313 312
315 316 316 316 316 316 316 317 318 319 320 321 324 323 320 319 321 322 323 323 324 323 321 321 322 323 322 320 320 321 321 319 318 320 321 320 317 317 318 317 316 318 318 317 316 317 318 317 316 316 322 327 321 313 311 315 315 313 313 314 313 313 313 312 312 311 311 311 311 311 311 310 310 310 310 310 311 311 311 311 311 312 312 312 312 312 311
315 314 315 317 317 316 317 318 318 319 319 320 321 322 319 318 321 324 324 322 321 322 322 321 319 320 321 320 320 320 319 318 318 319 319 319 317 318 318 318 318 318 317 316 316 318 319 318 317 319 324 323 316 311 312 314 313 312 312 312 312 311 311 311 311 311 310 309 310 310 310 310 310 310 309 309 310 310 310 310 310 310 311 311 311 311 311
314 313 316 319 317 316 318 318 317 318 319 319 319 321 323 322 321 322 324 323 322 322 322 321 320 321 322 321 320 320 320 319 318 318 318 318 318 318 319 320 318 316 315 316 318 319 318 317 317 319 319 315 312 311 312 312 311 311 311 311 310 310 310 310 310 310 310 310 309 309 309 309 309 309 309 309 309 309 309 310 310 310 310 310 310 310 309
317 318 319 320 318 315 315 316 317 318 320 319 318 320 321 322 323 324 322 321 321 322 321 321 321 322 322 321 320 321 320 319 319 319 319 319 319 319 319 318 316 315 316 317 318 317 316 316 317 320 318 314 312 312 311 311 311 311 311 310 310 310 310 310 310 310 309 309 308 308 308 308 308 308 308 308 308 309 309 309 309 309 309 309 310 310 309
319 318 318 320 319 314 312 315 318 320 320 318 317 319 319 320 322 322 320 319 320 322 321 321 322 323 322 320 319 319 319 319 320 319 318 319 320 319 316 315 316 317 317 317 317 316 316 316 319 321 318 314 312 311 311 310 310 311 310 310 310 310 310 309 309 309 308 308 307 307 307 307 307 307 307 307 307 308 308 308 309 309 309 309 310 310 310
318 315 314 317 317 313 312 315 318 318 317 316 317 318 318 318 319 319 318 318 320 321 320 319 321 322 320 318 318 319 319 320 321 319 317 318 319 316 313 314 317 317 316 316 317 316 316 317 320 319 315 312 311 311 310 309 309 309 310 309 309 309 309 309 309 308 308 307 307 307 307 307 307 307 307 307 307 308 308 309 309 309 309 309 309 309 309
319 315 314 315 316 314 313 315 315 315 315 316 315 315 316 317 319 321 319 317 318 320 321 320 321 321 319 318 318 318 317 318 320 319 316 316 316 315 313 315 317 316 315 315 316 316 317 320 319 315 311 310 310 310 309 309 309 309 309 309 309 309 309 309 308 308 307 307 307 307 307 306 306 306 306 307 308 308 308 309 309 308 309 309 309 309 309
316 314 314 316 316 314 313 314 315 317 317 316 315 315 318 321 323 323 320 318 320 321 320 320 321 322 319 316 315 316 316 318 319 317 315 315 316 315 314 315 316 315 314 314 315 316 317 316 313 310 309 310 310 310 309 309 309 309 309 309 309 309 309 309 308 308 307 307 307 307 307 306 306 306 307 307 308 308 308 308 308 308 308 308 308 309 309
313 314 316 317 316 314 313 314 316 318 318 318 317 318 320 323 324 323 321 320 321 320 317 317 319 319 315 312 312 313 314 315 315 315 315 317 317 315 314 315 316 315 315 316 317 317 314 311 309 309 310 310 310 309 309 309 310 310 309 309 309 309 309 308 308 307 307 307 307 307 307 306 306 306 306 307 307 307 307 307 308 308 308 308 308 308 308
311 312 314 314 314 314 315 315 316 318 319 318 319 319 320 322 323 323 321 320 320 320 319 319 319 316 312 311 313 313 312 312 313 314 315 316 315 314 314 315 316 316 317 317 315 313 310 309 309 310 310 310 309 309 309 310 310 310 309 309 309 308 308 308 307 307 307 307 307 307 307 306 306 306 306 306 306 306 307 307 308 308 308 308 308 308 308
312 312 313 312 312 313 314 314 315 316 317 317 316 316 318 321 323 322 319 319 320 321 320 319 318 316 315 315 315 313 311 311 311 312 312 313 313 313 315 317 317 317 318 317 313 310 309 310 311 311 311 310 310 309 310 310 310 309 309 308 308 308 308 308 307 307 307 307 307 307 307 307 307 307 307 307 307 307 307 307 307 307 307 307 307 308 308
Wind_Speed
27 26 26 26 28 28 29 31 32 34 31 24 19 10 1 1 0 1 6 5 3 0 2 0 1 1 1 1 1 1 2 2 3 5 5 4 2 3 3 2 2 3 2 1 2 2 2 3 2 2 2 1 1 3 4 2 2 1 0 0 1 1 0 1 2 0 1 1 2 2 1 2 3 1 2 6 5 4 3 2 4 5 4 2 2 2 1
27 26 25 26 27 27 28 29 30 31 28 23 17 6 1 1 1 2 6 4 3 1 2 0 1 1 1 2 2 1 2 3 4 5 5 4 2 2 3 2 2 3 2 2 3 2 1 3 3 1 1 1 0 3 5 3 0 1 1 1 1 1 1 1 1 3 3 3 4 4 2 2 2 1 1 2 3 5 4 3 3 5 3 2 4 3 2
27 27 25 26 26 26 26 28 29 28 25 21 13 2 2 1 1 2 5 6 2 1 1 0 0 1 1 2 3 2 1 2 2 3 4 4 2 1 2 1 2 2 1 3 4 4 2 2 1 0 1 0 1 2 5 4 2 2 2 2 1 0 1 1 2 4 5 4 4 3 2 1 0 1 2 2 4 7 5 3 3 5 2 2 3 2 3
26 27 25 25 26 26 25 26 28 27 23 19 11 2 1 1 1 1 3 4 4 2 1 2 1 0 0 1 2 2 1 1 1 1 3 4 3 2 2 2 1 2 3 3 5 6 5 3 2 1 1 1 1 3 4 4 5 5 3 2 1 1 2 2 2 2 1 0 1 1 1 1 1 1 3 2 2 2 3 3 4 4 4 4 3 2 5
25 26 26 25 26 25 24 24 26 25 22 18 9 2 1 1 1 1 1 1 2 1 1 3 1 1 0 1 1 2 1 1 1 2 2 3 3 2 3 3 2 1 2 3 4 5 4 4 3 1 2 2 2 3 4 3 8 8 4 3 1 2 3 3 4 5 4 2 2 1 0 1 2 2 2 2 1 1 4 5 3 6 6 4 3 6 8
24 26 26 25 25 25 23 23 25 23 20 16 8 1 1 1 1 0 1 1 1 1 2 3 2 1 1 1 1 1 2 2 2 2 1 2 4 2 2 5 6 2 1 2 2 3 3 4 2 1 1 2 2 3 2 3 7 6 3 3 2 2 2 3 2 3 3 4 4 3 3 3 4 5 4 2 1 2 3 2 3 6 4 2 7 12 10
23 26 26 25 25 25 24 22 23 22 17 14 9 3 1 2 1 1 1 1 1 0 2 2 1 2 1 1 1 1 2 3 2 2 2 3 5 3 2 5 6 3 1 2 2 2 2 3 2 1 2 2 2 3 2 2 5 5 3 4 2 1 1 1 0 1 4 6 6 6 5 5 8 9 9 7 3 2 2 2 3 3 2 1 9 13 8
21 24 25 25 24 25 24 22 23 22 16 11 8 4 2 1 1 1 1 1 0 1 1 1 1 2 1 1 2 1 1 3 2 2 3 2 3 3 4 3 4 5 5 5 4 2 1 3 2 1 1 1 1 1 1 2 5 6 4 2 2 1 1 1 1 1 4 8 7 6 4 4 8 11 11 10 6 3 3 3 3 3 3 3 8 9 5
20 22 24 24 23 24 24 23 22 22 17 9 5 4 4 2 0 1 0 0 2 1 1 1 1 1 1 1 2 2 1 2 3 2 3 2 2 2 4 4 2 4 7 8 6 1 1 1 2 2 2 1 1 1 1 1 4 5 4 2 3 3 1 1 0 2 3 7 7 5 2 1 5 11 13 12 6 1 1 1 0 1 5 9 8 5 4
18 20 22 23 22 23 24 23 22 21 18 12 5 3 6 3 0 1 0 0 2 1 0 1 1 2 1 1 1 2 2 2 2 3 2 2 3 2 2 2 2 4 6 7 5 2 1 1 2 1 1 2 2 2 2 2 2 4 3 1 2 2 0 0 1 1 2 5 6 4 1 3 1 8 11 10 6 3 2 1 1 3 7 9 4 1 4
16 19 20 22 21 22 23 22 21 21 19 14 6 3 5 3 0 1 1 1 1 1 0 1 1 1 1 2 2 2 3 2 1 2 2 2 3 2 1 1 2 2 3 4 3 1 1 2 3 3 4 5 5 4 5 7 6 3 2 1 1 2 1 1 1 1 1 3 3 2 1 1 1 5 7 6 5 5 4 2 2 3 3 0 1 2 8
14 17 19 20 21 20 21 21 20 19 18 13 7 4 6 4 0 0 1 1 1 0 0 1 1 1 1 3 3 2 3 1 1 2 4 2 1 1 1 2 2 2 2 2 2 4 4 3 3 3 3 4 5 7 10 10 7 4 2 2 1 1 1 1 1 0 0 2 1 2 0 2 1 2 5 3 2 3 3 1 3 2 1 2 1 6 11
12 16 18 19 20 19 19 20 19 18 16 11 7 6 7 5 1 0 1 0 1 1 1 1 1 1 2 6 6 3 3 3 3 3 4 3 2 1 1 1 1 2 2 2 3 4 3 2 1 0 2 3 3 6 9 8 7 6 5 4 2 2 1 1 1 1 1 2 2 3 1 2 1 1 5 5 2 4 3 1 2 2 3 1 4 7 11
11 15 17 17 19 18 17 18 18 17 14 10 6 7 9 7 2 0 0 0 1 1 1 1 2 2 4 6 6 5 3 3 3 3 3 2 2 2 1 1 2 1 1 2 3 2 1 1 1 1 1 2 0 2 4 3 4 6 6 5 3 2 1 1 1 1 0 2 2 1 1 1 2 2 4 4 3 5 4 2 1 1 2 3 6 10 13
10 13 16 16 17 17 16 17 17 16 14 9 5 7 11 10 5 1 0 1 1 1 0 1 1 2 3 2 3 4 3 2 2 3 2 1 1 0 1 2 2 1 2 1 1 2 1 1 2 2 0 0 0 0 2 2 1 2 2 2 3 2 1 1 1 1 1 1 2 2 3 2 1 1 1 2 2 4 4 3 0 1 2 5 10 13 15
11 11 15 16 16 16 15 15 16 16 14 9 4 6 10 12 8 2 1 0 1 1 1 1 1 2 2 2 1 2 3 2 1 1 1 1 1 1 1 1 2 1 2 2 2 1 1 1 2 1 1 1 0 0 1 2 2 1 1 1 3 4 3 1 1 2 0 2 2 2 2 2 3 5 5 4 3 2 2 3 0 3 1 6 12 14 15
13 11 14 15 15 16 14 14 15 15 13 10 6 4 8 12 11 4 1 0 1 0 1 1 2 2 2 2 1 1 2 2 1 1 1 1 1 2 2 1 2 2 2 2 1 1 2 2 1 1 1 0 1 1 0 1 2 2 3 4 4 4 3 1 1 2 1 2 2 1 1 3 4 8 11 9 2 3 2 3 2 5 3 6 11 14 15
14 10 13 15 15 15 13 12 14 15 13 11 7 2 4 10 13 8 1 1 0 1 1 2 3 1 1 1 2 2 1 2 2 1 1 1 0 2 3 2 1 2 1 1 0 1 2 1 1 1 2 1 1 1 0 0 1 2 3 2 2 2 2 2 1 2 1 1 2 1 2 2 5 10 12 9 2 3 1 2 3 5 6 5 10 13 14
16 10 11 14 14 15 13 11 13 14 13 11 8 2 1 7 13 10 3 1 0 1 1 2 2 1 1 1 2 2 1 1 1 1 2 1 0 1 1 1 0 1 2 1 1 1 1 1 0 0 1 1 0 0 1 1 1 1 1 1 1 1 1 1 1 1 1 0 1 1 2 3 7 12 10 6 2 2 2 4 3 5 6 5 8 11 12
16 11 10 13 13 14 14 11 11 14 13 12 10 4 0 5 12 11 4 0 0 1 0 0 0 0 1 1 2 2 1 1 1 1 1 1 1 0 1 1 0 1 1 1 1 0 0 2 1 1 0 2 0 0 1 1 0 0 1 1 2 2 1 1 1 1 0 1 1 1 2 3 10 12 6 2 3 2 3 6 5 3 4 5 5 7 9
16 12 11 13 13 13 14 12 10 12 13 12 11 5 1 4 11 11 5 1 1 0 1 1 2 1 1 1 1 1 1 1 1 1 2 1 1 1 1 1 1 0 1 1 1 1 0 1 1 0 0 1 0 1 1 1 2 1 1 1 0 1 1 1 1 0 1 1 2 2 2 4 9 8 3 3 5 4 4 5 5 3 2 3 3 3 4
16 12 11 12 13 12 13 12 10 11 12 12 10 6 2 4 10 10 4 1 2 2 3 4 4 2 2 4 4 2 1 1 1 2 4 3 1 1 1 1 1 1 1 0 1 1 1 1 1 1 1 1 0 0 0 0 1 2 0 1 1 1 2 1 1 1 1 2 2 2 2 3 5 4 2 5 6 5 5 4 4 3 2 1 2 3 4
14 12 11 12 13 12 12 11 9 9 11 11 10 7 5 6 10 8 3 0 2 3 4 5 3 3 5 7 8 6 4 3 3 2 2 2 1 0 0 1 1 1 1 1 0 1 1 1 1 1 1 1 1 1 1 1 0 1 1 0 1 1 1 1 1 1 1 2 2 2 2 4 5 4 2 4 6 6 5 4 2 3 3 1 0 3 6
13 12 11 12 13 12 11 11 8 7 10 11 9 7 6 7 11 9 3 1 1 0 1 3 2 1 2 4 5 7 7 6 6 4 0 1 2 1 1 1 2 1 1 1 0 1 1 1 0 0 1 1 1 1 1 1 0 1 1 1 1 1 1 0 1 2 2 1 3 3 4 6 7 5 4 6 8 7 6 5 4 4 3 2 3 4 5
11 11 12 13 13 11 10 10 8 6 8 9 8 6 4 6 10 9 4 2 1 1 1 2 3 3 3 3 3 6 7 6 5 4 1 2 3 2 3 3 2 2 3 2 1 1 2 2 1 1 1 1 1 0 1 1 1 1 1 1 1 0 1 0 1 1 0 1 2 1 2 5 8 7 6 6 8 8 9 8 6 6 6 6 7 6 6
10 10 12 13 12 11 10 9 7 6 7 8 6 3 3 5 8 8 5 2 1 1 1 2 2 5 6 5 5 6 5 4 5 5 5 3 4 7 10 8 4 4 4 2 1 1 2 2 1 1 1 1 0 0 1 1 1 0 1 2 1 2 1 1 1 1 2 2 2 2 1 3 8 9 8 6 6 8 10 10 10 10 9 8 9 9 8
10 10 12 13 12 11 10 9 7 5 6 7 4 1 1 3 6 7 6 3 0 0 1 2 0 4 6 7 9 8 3 4 7 9 10 10 11 14 15 9 4 3 3 1 2 2 1 1 1 1 1 1 0 1 1 1 1 1 2 2 2 1 1 0 1 1 2 2 2 1 1 2 5 7 6 5 6 9 11 12 12 11 10 8 8 8 8
10 10 12 12 12 12 11 9 6 4 5 5 2 1 2 1 3 5 6 5 2 0 1 2 0 1 2 5 11 10 4 5 9 12 13 12 12 14 12 6 2 2 2 1 2 1 1 1 1 1 1 1 1 1 1 1 1 1 2 2 2 1 1 0 0 2 2 3 2 1 1 3 3 2 3 4 5 7 10 10 10 10 10 9 8 7 6
10 10 12 12 12 11 11 9 5 4 5 2 2 3 2 0 2 3 4 5 3 0 0 1 1 1 1 3 9 11 8 8 12 14 14 13 13 12 9 6 3 2 2 2 2 2 2 1 0 1 1 0 1 1 1 1 1 1 2 1 1 0 0 1 2 3 3 2 2 1 1 3 2 1 2 3 5 5 5 6 6 7 8 9 9 8 6
10 10 11 12 12 11 10 8 5 4 2 2 4 2 1 1 1 1 2 4 3 1 0 1 2 1 1 2 5 8 9 10 14 16 15 12 10 8 6 5 3 2 1 2 2 1 2 1 1 1 1 1 0 1 1 1 1 1 2 1 0 1 1 0 1 1 2 2 2 2 1 1 0 2 1 2 4 4 3 4 4 4 5 7 8 7 7
10 10 11 12 11 10 8 7 5 4 1 5 4 1 1 1 1 1 1 3 2 1 0 1 2 1 1 1 2 5 6 7 9 11 10 8 6 6 6 5 3 2 1 2 1 1 1 1 1 1 1 2 1 1 1 1 2 2 4 3 1 1 2 1 0 1 1 1 2 3 2 1 1 0 1 3 5 4 3 3 3 3 3 4 5 6 6
10 10 10 10 10 9 7 6 5 4 3 6 5 1 1 1 1 2 2 2 2 1 1 1 2 1 1 1 2 4 4 4 5 5 4 4 4 4 5 5 2 2 3 2 2 1 1 1 1 2 1 1 2 1 2 1 2 3 5 4 2 1 1 1 1 1 1 1 1 2 3 2 2 2 2 3 5 4 4 5 4 4 4 2 1 3 4
10 10 10 10 9 7 6 5 5 3 4 6 4 1 1 1 1 2 1 1 1 1 0 1 2 2 1 1 1 3 3 2 2 2 3 3 3 2 3 3 2 2 3 2 1 1 1 0 1 2 1 1 1 1 2 2 1 3 4 3 2 1 1 1 2 2 2 1 1 1 1 1 2 2 1 2 3 3 4 5 5 4 3 1 1 0 2
9 9 9 9 7 6 5 4 4 3 4 4 3 2 2 2 3 3 2 1 2 2 2 1 2 2 1 1 1 2 3 1 0 1 2 2 2 1 1 1 1 1 2 2 1 1 1 0 1 2 1 1 1 1 2 2 2 2 2 1 1 1 2 2 2 2 2 2 2 2 2 1 1 1 2 3 4 4 4 3 4 4 3 2 3 3 2
8 8 8 7 5 4 3 2 4 4 4 4 4 4 3 4 4 3 2 2 1 1 1 1 1 2 2 2 2 1 2 1 1 1 1 1 2 1 1 1 1 1 1 1 0 1 1 1 0 2 1 1 1 3 2 2 4 4 3 2 3 3 3 3 3 2 2 2 2 2 2 1 1 2 3 3 5 6 5 4 4 4 3 2 3 3 3
6 7 7 5 3 2 2 3 4 4 3 4 5 5 4 5 5 4 4 4 3 1 1 0 0 1 2 2 2 0 1 1 1 1 0 1 1 1 1 0 1 1 1 1 0 1 1 0 1 1 1 1 3 3 2 3 5 6 4 3 3 3 2 2 3 3 3 2 3 3 3 3 3 2 2 1 2 4 4 4 5 5 4 4 4 3 3
7 7 5 4 3 2 2 2 3 4 5 6 7 5 4 4 4 3 3 3 4 4 1 1 1 1 1 1 1 1 1 1 1 1 0 1 1 1 1 1 1 1 0 0 1 1 1 1 1 1 2 2 2 1 2 3 4 4 3 3 4 3 2 3 3 3 3 3 3 3 2 2 2 2 2 3 2 2 3 3 4 4 4 5 5 4 3
7 6 4 3 2 2 1 1 5 8 9 8 6 3 2 2 2 2 1 1 2 3 2 0 1 1 1 1 2 1 1 1 1 0 1 1 1 1 1 1 1 1 1 1 1 1 1 1 0 2 3 2 3 3 4 4 3 2 3 4 4 4 3 4 4 3 3 3 2 1 1 2 2 2 2 3 4 3 3 3 3 3 4 4 5 4 4
6 5 3 2 1 1 2 6 9 10 8 5 2 0 1 1 0 1 1 1 1 0 0 1 1 2 1 2 2 1 1 1 2 1 1 1 1 1 1 1 1 1 1 1 1 1 2 1 0 2 3 3 2 3 4 5 4 3 4 4 4 4 4 4 3 2 1 1 1 1 1 2 4 4 4 4 4 4 5 5 5 5 5 6 6 5 4
5 4 2 1 1 3 7 11 11 8 4 2 1 0 1 1 0 1 1 0 0 1 0 0 1 1 0 1 3 2 1 0 1 1 2 2 0 0 1 1 1 1 2 1 1 1 2 1 1 1 3 3 2 1 2 4 5 4 4 4 4 5 4 3 2 1 1 1 2 2 2 3 5 5 5 5 5 6 6 6 6 6 6 7 7 7 7
4 3 1 2 5 9 11 10 6 3 2 1 1 1 1 1 1 1 1 1 1 1 1 1 2 2 1 1 1 2 1 0 1 0 2 2 0 1 1 1 0 1 2 0 1 1 1 1 1 2 3 2 1 1 2 3 5 5 5 5 5 5 5 4 3 2 1 2 2 2 3 4 5 7 7 7 7 7 8 8 9 9 9 9 10 10 10
5 5 5 8 10 10 8 5 3 2 1 1 1 1 0 0 1 1 2 1 1 1 2 2 1 2 2 1 1 1 1 1 1 0 1 2 0 0 1 2 0 2 1 1 2 1 1 1 2 3 3 2 1 2 3 4 5 6 6 6 6 6 5 4 3 2 0 2 3 4 5 6 7 8 8 9 10 10 10 10 10 11 11 11 12 13 13
7 8 8 7 6 4 2 1 1 1 1 1 1 1 1 1 1 1 1 1 1 1 2 2 1 2 2 1 1 2 1 1 0 1 1 1 1 1 1 1 1 1 1 1 1 2 2 3 4 3 1 1 2 3 3 3 5 6 6 5 5 5 4 3 2 1 1 3 5 6 6 7 8 9 9 10 10 11 11 11 11 12 12 12 13 13 14
7 5 3 2 1 1 1 0 0 0 1 1 1 2 2 2 2 2 2 2 2 3 3 3 3 3 3 2 1 1 2 1 0 1 1 1 1 1 1 1 1 1 1 1 2 2 2 4 4 2 0 1 2 3 3 4 5 6 5 5 5 4 3 2 1 2 3 3 5 7 8 9 10 11 10 10 10 11 12 12 12 12 12 13 12 13 14
3 1 1 1 1 1 0 0 0 1 1 2 2 2 2 2 2 3 2 1 2 3 3 3 3 4 4 2 1 1 1 1 0 1 1 1 1 1 1 1 2 2 1 2 2 2 3 4 3 3 3 3 4 5 5 5 5 5 5 5 4 3 2 1 1 2 4 5 6 7 9 10 10 11 12 12 12 12 13 13 13 13 12 12 12 12 14
1 1 2 2 0 1 0 1 0 0 1 2 2 2 2 1 1 2 1 1 1 3 4 4 4 4 4 2 1 1 1 1 2 1 1 1 2 1 1 1 2 2 2 2 3 4 5 4 3 2 4 5 6 6 6 5 5 5 5 4 3 2 1 1 2 3 4 6 7 8 9 9 10 11 12 13 13 13 13 14 14 13 13 13 12 12 14
1 1 1 2 1 0 1 1 1 1 1 1 2 2 1 0 0 0 1 1 1 3 4 3 2 2 2 1 1 1 1 1 2 2 1 1 1 1 1 1 2 2 3 3 4 4 5 4 2 2 4 6 8 7 6 5 5 5 5 4 3 2 1 1 2 3 4 6 7 8 9 9 10 11 12 12 13 14 13 13 14 13 13 14 14 14 13
1 0 0 1 1 1 1 1 1 1 1 1 1 1 0 0 0 1 1 1 1 4 5 4 2 2 2 1 1 1 1 1 2 2 1 1 1 1 1 2 3 2 3 4 5 5 4 2 1 3 5 7 8 8 6 6 6 6 5 4 4 3 2 2 1 2 5 6 7 8 9 9 10 11 11 12 13 14 13 13 13 13 12 13 13 13 13
2 1 1 1 1 1 1 0 1 2 1 1 1 1 1 1 1 1 2 2 2 3 3 2 2 2 2 1 1 1 1 2 2 2 1 2 2 2 2 3 3 3 3 4 5 4 2 1 2 5 7 8 7 7 6 6 6 6 5 4 3 3 2 1 2 4 6 6 7 8 9 10 10 10 10 11 12 13 12 12 11 11 11 11 12 12 13
1 1 0 1 1 1 1 1 1 1 0 1 1 1 2 1 1 1 2 2 2 2 2 1 1 1 1 1 1 1 2 2 2 2 2 4 3 2 2 3 4 4 3 3 3 2 2 3 4 6 8 8 7 7 7 7 6 6 5 5 3 2 2 2 3 4 5 6 7 8 9 9 9 9 10 11 11 11 11 11 10 10 11 11 11 12 13
1 0 0 1 1 1 1 1 1 1 1 1 1 1 1 1 1 1 2 3 3 3 3 2 1 2 2 1 1 1 1 1 2 2 3 3 3 3 4 5 5 4 3 2 1 1 2 4 6 7 7 8 7 7 7 8 8 7 6 5 4 3 3 2 2 3 4 5 7 7 8 8 9 9 10 10 10 10 10 10 9 9 10 10 11 12 13
0 0 0 1 1 1 1 1 1 2 2 1 0 1 1 0 1 1 3 3 4 4 3 2 1 2 2 2 1 1 1 2 2 3 3 3 3 4 4 4 3 2 2 2 2 2 3 4 6 7 8 8 8 8 9 9 9 8 6 6 5 3 2 1 1 2 3 5 6 6 7 8 9 9 8 8 8 8 8 8 8 8 9 10 10 10 10
Wind_Direction
356 0 3 2 1 0 358 359 359 358 0 3 0 360 38 50 14 306 357 352 219 266 34 133 41 25 322 343 254 291 346 356 353 359 10 16 24 48 43 26 43 44 31 53 55 42 46 37 35 88 85 62 275 314 325 259 209 220 268 149 149 177 158 243 251 239 64 76 114 111 34 162 183 219 180 186 197 198 207 190 159 179 179 145 199 235 139
357 0 3 2 1 1 359 360 1 0 2 2 360 6 140 9 269 261 357 8 206 215 31 14 11 8 331 12 39 11 17 23 18 20 20 7 4 45 46 20 31 36 26 72 63 8 48 61 32 68 116 64 307 313 326 314 205 49 341 292 187 196 316 308 181 152 135 136 143 140 137 175 188 148 143 192 141 119 113 92 148 198 183 144 223 232 124
358 360 2 2 1 0 360 1 1 0 1 1 2 23 185 332 186 238 351 21 81 115 45 31 45 18 359 36 28 7 49 41 13 28 35 20 356 30 60 20 6 27 51 85 66 25 37 77 26 6 133 334 299 318 330 338 1 5 334 302 287 98 32 318 215 175 167 164 155 150 152 182 345 102 138 187 148 140 136 123 175 205 161 140 233 240 112
359 359 1 3 1 360 0 1 2 1 360 359 3 39 182 335 133 262 338 29 55 77 62 22 45 138 92 82 32 10 50 26 342 53 52 30 20 37 40 343 324 50 54 76 64 32 30 79 89 49 2 318 312 316 315 339 360 356 10 21 329 147 85 10 355 64 84 130 49 18 313 288 303 120 137 171 181 152 135 154 189 177 146 175 224 139 148
0 359 0 3 1 359 0 2 3 2 360 358 1 38 55 22 116 21 330 30 45 85 83 31 24 211 168 107 33 5 353 332 359 45 54 35 25 48 52 19 14 47 40 73 69 26 24 59 62 29 335 301 291 298 286 332 353 349 2 19 339 139 72 13 23 55 47 351 323 310 301 2 356 11 129 153 181 193 187 195 174 138 155 204 182 155 174
1 359 360 2 1 360 0 3 5 4 2 2 6 36 42 29 134 61 316 274 49 64 12 11 29 96 97 108 53 17 29 43 39 23 45 36 10 25 64 23 14 353 309 94 71 7 36 57 25 341 9 334 319 329 307 346 358 354 8 12 4 117 67 16 28 66 55 23 17 51 95 81 41 30 41 60 4 259 220 208 154 151 192 243 163 171 189
2 360 359 1 2 1 1 3 7 7 4 11 26 50 19 28 98 106 326 297 182 303 333 344 78 89 80 79 65 55 65 78 72 344 8 40 9 17 60 15 7 15 26 103 78 10 49 71 29 344 15 2 4 9 350 346 359 6 29 29 31 127 65 45 112 72 41 35 41 61 80 83 66 49 37 34 23 354 29 80 123 113 3 356 159 172 185
3 360 358 0 2 3 2 4 10 11 12 23 40 47 17 21 72 354 350 45 66 308 336 336 117 84 48 99 86 65 56 88 105 4 13 46 8 29 87 55 20 42 57 81 87 39 24 68 43 330 312 14 28 12 322 309 348 7 26 18 358 345 182 164 181 144 36 21 28 51 66 82 71 52 30 23 28 45 64 96 128 83 54 101 145 160 166
3 359 358 359 2 5 5 5 11 16 22 37 55 40 14 8 171 330 325 68 353 336 11 29 116 107 69 140 140 138 125 110 108 68 25 40 45 67 111 107 40 37 54 61 62 37 245 6 349 273 242 14 357 2 35 277 320 360 18 358 351 360 147 162 208 146 52 5 2 25 38 164 65 36 13 0 357 2 63 71 219 169 132 130 140 169 179
2 359 357 357 1 6 6 7 10 16 28 44 60 25 6 1 157 15 278 226 356 350 64 42 148 153 101 132 152 139 142 156 118 95 61 25 48 65 161 132 50 39 48 42 23 343 269 342 348 269 174 75 51 52 72 61 4 356 4 17 3 356 39 73 305 163 66 354 345 10 359 215 75 20 352 332 326 317 301 294 247 179 151 142 156 223 146
3 358 356 356 359 5 7 8 9 13 26 41 52 28 8 7 36 352 309 162 37 4 202 35 112 124 116 144 134 115 139 170 269 132 125 22 37 63 165 121 81 62 44 23 9 38 103 104 96 94 92 84 76 71 66 58 47 9 338 5 35 16 22 26 338 202 56 357 340 345 359 160 86 12 340 310 300 314 312 304 132 148 156 149 328 114 139
2 357 355 355 358 3 7 8 9 11 19 32 46 42 18 10 233 301 336 116 66 5 102 48 355 297 196 138 108 92 133 141 313 139 128 106 64 94 72 68 85 72 25 18 79 124 125 104 93 83 56 55 65 62 53 45 35 22 14 13 21 40 40 45 36 341 14 22 341 234 198 63 93 13 4 357 294 318 339 76 112 97 354 312 202 156 157
358 356 353 354 355 359 5 7 8 10 12 20 37 38 21 16 51 93 354 84 71 3 49 72 354 291 136 115 101 90 94 82 50 65 92 91 91 87 42 36 45 29 20 46 76 114 130 84 42 350 355 357 36 54 44 30 15 19 27 20 17 53 85 102 62 346 211 128 154 203 173 60 114 98 29 23 358 348 360 115 126 19 325 261 164 158 160
353 354 352 353 352 355 2 5 6 9 11 16 37 40 28 23 30 105 319 64 73 337 290 125 94 87 100 102 106 109 95 76 61 49 47 57 71 66 26 348 353 6 107 105 57 65 122 116 147 185 338 341 14 45 24 11 11 18 18 14 22 62 120 142 103 4 95 126 122 167 181 86 85 57 24 14 343 332 326 285 158 33 271 203 154 154 159
350 352 351 351 349 350 358 4 4 7 11 18 42 42 31 25 24 91 149 11 103 147 283 128 125 117 111 103 115 120 110 90 81 65 25 340 13 7 303 343 357 39 116 116 45 55 118 184 179 176 216 16 116 5 338 334 7 32 24 14 34 57 36 305 185 112 26 133 129 156 177 142 73 336 359 20 302 286 276 258 231 57 231 186 157 156 163
343 348 350 349 345 345 353 1 2 6 10 17 37 42 32 26 24 42 148 5 119 132 24 331 192 148 111 79 62 115 120 124 125 101 73 26 2 314 269 334 2 51 86 75 65 75 94 155 172 166 113 66 44 278 337 340 350 78 97 13 38 56 49 12 153 112 132 211 184 173 164 108 18 322 324 340 317 239 218 231 16 31 287 183 161 160 167
338 343 349 348 343 341 348 358 1 4 8 10 14 26 30 25 20 20 150 109 35 68 42 118 155 132 114 119 103 93 104 103 109 122 114 99 328 308 309 349 39 63 68 56 60 82 82 99 128 134 113 84 307 306 39 351 359 26 5 359 16 29 31 25 80 107 139 218 212 153 98 71 3 323 321 328 348 140 198 251 25 17 309 194 167 166 167
336 337 344 346 344 342 345 353 358 0 4 5 359 357 31 23 18 16 36 187 16 48 116 181 183 145 55 132 122 112 117 101 93 108 103 96 288 317 329 338 29 51 36 13 61 83 81 91 103 110 115 131 285 293 92 29 27 20 341 335 11 19 18 21 54 85 74 222 203 128 88 59 348 322 317 315 279 172 217 331 13 343 301 219 179 174 167
333 326 333 341 343 343 343 347 354 357 359 360 359 360 55 16 12 12 18 158 69 48 87 204 215 194 86 88 93 99 106 66 72 116 134 134 116 358 324 290 294 8 31 67 83 69 81 104 102 292 128 125 209 288 74 54 41 12 328 335 29 26 24 27 34 54 45 98 168 106 127 80 346 319 307 303 267 198 13 344 309 296 294 253 195 179 168
332 319 320 335 342 343 341 340 348 354 355 356 0 5 188 0 1 0 1 126 231 350 50 264 312 149 164 97 93 110 118 86 86 118 126 108 101 212 225 177 116 9 33 91 96 66 148 121 124 251 173 100 77 202 109 102 127 307 335 359 13 355 353 42 48 19 357 106 81 74 133 53 353 330 316 360 2 339 335 322 300 280 287 263 208 178 170
332 317 308 328 340 342 339 334 339 351 354 354 358 4 21 1 357 350 342 229 181 57 50 5 340 311 264 328 327 236 145 93 108 145 129 85 19 281 246 103 86 64 61 66 95 116 98 107 116 145 77 72 353 230 118 115 128 115 309 260 148 343 334 33 71 266 320 38 66 52 13 353 349 347 1 15 346 315 298 303 302 309 306 260 209 168 152
331 318 300 318 335 338 335 330 330 346 353 353 356 2 10 5 359 352 343 233 221 261 303 320 326 347 58 52 37 17 41 38 27 142 140 117 37 303 103 102 141 168 119 116 118 108 116 140 138 138 123 105 122 127 22 311 140 122 242 251 79 5 334 357 30 64 21 16 30 38 6 338 350 9 358 332 332 324 303 290 283 302 333 269 204 161 142
326 317 294 307 328 332 330 326 323 341 352 353 356 0 1 4 6 4 4 276 259 265 291 317 342 79 76 53 43 50 68 52 26 53 140 128 108 145 233 103 124 123 153 230 44 99 136 136 110 121 127 113 129 134 124 297 21 99 111 92 33 12 309 334 45 134 122 43 23 17 10 5 11 25 13 343 351 352 338 328 321 327 337 330 215 151 152
322 315 289 299 320 326 325 322 316 332 350 352 354 358 3 10 12 13 24 28 329 236 346 3 26 59 348 342 18 46 51 35 23 23 44 160 145 156 240 196 168 145 145 175 36 87 115 105 84 209 128 124 200 165 128 118 132 130 138 126 96 140 178 165 97 156 176 87 59 41 27 22 16 23 42 27 18 17 13 12 14 360 355 36 71 97 121
317 309 286 294 316 324 323 319 309 323 347 351 351 357 12 20 18 21 37 46 26 147 116 67 42 12 337 307 360 25 21 14 18 25 27 211 216 201 136 135 145 107 113 131 165 130 95 82 116 176 118 137 229 291 49 87 133 205 176 100 69 163 210 226 77 102 82 77 95 88 22 30 29 33 44 33 23 28 29 29 34 30 29 58 75 74 80
309 302 283 291 311 320 320 315 304 314 343 347 345 355 38 38 29 31 39 46 47 45 105 136 53 27 41 50 11 354 3 39 58 59 61 85 153 145 129 123 102 79 94 100 77 88 80 77 99 92 95 145 215 347 74 97 103 183 107 69 14 303 280 336 6 87 108 101 114 185 221 53 43 41 46 44 38 43 37 31 38 42 39 51 68 71 79
300 294 280 286 304 312 313 311 302 311 339 340 331 308 106 51 41 41 37 34 73 205 137 154 158 18 45 42 12 359 21 95 97 93 85 89 114 125 122 118 99 85 92 73 67 84 82 96 97 47 56 111 116 64 84 84 100 134 93 55 346 289 148 130 282 164 119 67 43 313 241 82 53 37 35 37 46 59 56 43 39 41 39 45 63 71 75
291 284 275 284 299 305 308 310 301 307 331 333 314 183 153 65 40 39 31 27 35 184 123 131 158 346 57 33 16 19 60 117 113 106 96 93 106 111 104 93 82 93 79 60 86 98 62 82 111 80 85 136 171 111 111 145 174 148 103 51 352 349 101 14 328 95 72 47 61 79 50 77 73 24 13 14 21 51 69 66 57 51 45 46 58 71 84
281 272 268 282 296 303 309 309 296 303 329 327 174 159 150 105 11 25 26 24 28 12 14 124 118 19 351 4 13 29 64 102 109 104 94 87 87 83 74 66 66 74 79 81 89 93 72 67 101 80 62 355 238 134 138 195 191 140 112 68 355 357 210 339 40 86 88 79 120 149 66 72 77 324 344 2 360 19 55 70 72 73 66 60 57 57 73
272 263 264 279 293 301 305 298 285 301 321 176 168 151 129 214 259 329 10 6 358 313 284 129 128 79 356 349 13 31 53 80 92 89 81 74 69 60 58 71 70 50 74 86 66 91 114 106 110 104 42 348 260 149 143 178 174 142 143 158 143 143 169 233 18 88 108 107 136 160 108 70 334 285 310 346 351 1 16 25 37 60 74 77 76 69 65
264 257 262 279 292 297 294 281 276 295 259 178 176 153 56 166 198 217 287 346 348 263 192 94 110 81 33 64 24 19 29 57 76 75 68 61 58 49 50 62 53 9 37 79 70 97 132 103 101 125 87 16 8 108 141 181 198 172 159 164 176 158 151 136 99 137 142 143 163 166 147 126 286 239 68 7 357 355 339 334 347 354 6 43 81 96 91
256 255 266 281 289 286 274 263 271 282 209 187 196 252 359 124 172 202 234 336 353 234 176 96 116 132 123 118 11 2 11 43 63 62 50 39 38 39 41 47 46 35 49 87 120 100 67 61 95 110 91 7 11 102 147 213 222 159 148 158 177 171 146 110 106 124 134 177 211 187 150 106 39 48 39 350 345 342 329 327 330 324 317 324 34 112 118
248 254 270 282 278 265 252 254 263 250 189 191 205 245 358 85 124 155 169 66 64 126 75 77 127 133 116 168 350 1 5 37 59 48 36 22 2 4 41 46 51 46 36 36 108 88 56 242 124 105 91 12 28 132 185 232 208 140 140 159 167 132 115 119 118 107 84 35 335 340 59 40 14 12 351 321 330 332 324 324 329 333 334 325 316 57 130
243 256 273 277 263 246 246 253 236 186 158 162 161 131 103 99 103 114 123 98 86 88 55 52 131 120 69 189 185 20 12 21 92 42 45 29 351 316 82 57 26 40 31 22 71 127 139 174 142 144 138 64 28 230 230 221 181 159 165 193 181 159 151 147 126 92 64 51 37 39 32 343 312 353 16 19 11 356 337 332 337 338 346 10 19 25 40
241 258 268 266 251 237 240 221 176 152 127 121 131 126 108 99 98 98 92 68 58 133 59 29 131 137 123 170 181 56 22 48 73 29 39 59 25 15 74 97 55 42 24 4 14 152 124 74 167 176 143 67 235 229 231 208 186 192 204 191 171 173 169 149 125 95 76 76 82 77 56 39 61 53 35 34 27 12 4 9 6 349 338 354 10 15 16
243 257 256 248 234 218 199 174 158 144 119 123 134 127 108 104 102 92 85 73 58 76 120 64 109 159 160 165 164 92 27 95 98 30 22 144 76 33 24 116 99 60 354 317 204 142 102 44 256 191 146 206 230 218 209 197 187 188 197 189 168 160 148 127 123 127 124 107 90 81 60 44 49 42 3 9 38 22 12 14 12 359 349 348 354 357 358
244 245 231 213 198 182 171 153 142 136 130 130 133 123 102 102 101 87 83 71 43 37 72 175 169 148 169 150 127 140 192 170 124 66 84 144 101 43 14 36 104 124 215 183 104 85 97 113 269 231 192 215 247 236 203 205 194 183 177 168 160 157 145 136 143 148 141 130 114 93 62 30 24 9 337 331 340 347 356 7 6 350 337 332 335 340 340
230 218 201 195 191 181 159 124 130 132 129 127 129 119 75 67 76 62 41 8 10 21 19 200 153 137 170 125 109 137 201 161 131 116 124 142 142 114 64 61 100 168 225 147 85 73 133 121 7 271 246 251 275 251 219 208 199 169 145 142 153 162 155 152 164 167 153 145 136 96 25 339 330 331 319 311 312 312 319 323 314 303 299 301 304 315 320
203 189 185 197 201 155 129 133 133 130 125 118 127 138 40 29 44 118 48 331 319 29 14 222 171 164 176 148 130 133 285 162 150 152 139 150 196 200 156 133 141 191 230 168 118 192 234 189 92 290 270 260 258 235 200 177 174 176 161 149 153 157 151 156 172 171 143 147 225 256 276 289 298 300 294 290 291 288 286 287 288 286 285 282 276 273 279
172 171 181 194 152 124 131 134 131 125 120 97 6 5 91 62 31 144 113 39 278 193 205 190 142 143 239 163 146 156 225 226 166 155 136 126 151 254 140 125 147 209 238 232 122 160 255 235 156 278 271 243 215 195 162 162 168 168 156 147 148 152 155 161 165 165 187 242 248 248 253 261 269 274 276 278 280 279 277 276 274 273 275 275 268 260 257
168 190 193 143 131 127 128 126 115 101 114 113 15 17 91 107 86 121 136 153 200 205 197 162 150 156 198 229 148 143 144 64 11 84 118 109 68 246 152 114 82 254 249 225 116 144 230 240 212 249 258 238 187 139 150 161 156 145 144 151 151 149 152 148 140 150 204 250 266 271 274 273 269 268 270 272 271 270 271 273 272 269 265 263 262 259 258
171 161 131 121 124 125 121 108 78 56 81 126 78 40 300 138 143 189 202 209 217 178 168 176 168 140 136 138 109 96 134 181 211 95 118 121 122 266 112 98 112 250 243 116 113 155 205 235 246 248 244 224 175 162 167 164 152 144 145 147 142 138 138 132 124 129 209 301 298 289 284 282 277 274 274 273 271 268 267 267 268 268 266 264 262 259 257
152 145 133 122 119 113 95 70 66 68 71 80 94 141 212 207 177 197 206 207 203 164 149 148 127 100 113 128 77 64 93 165 153 60 91 126 128 102 108 128 193 238 124 127 161 189 203 224 238 244 241 182 168 168 161 150 139 131 127 126 126 121 114 103 89 31 303 291 289 291 292 288 281 277 274 272 271 271 270 267 265 266 268 269 268 264 260
148 147 144 129 85 43 53 112 92 109 193 207 181 181 190 186 183 193 187 174 176 171 157 158 166 157 149 152 126 104 125 142 99 83 111 122 129 151 175 186 184 130 122 181 208 219 235 242 242 242 231 158 167 161 154 143 135 129 125 122 117 108 97 85 31 323 309 301 299 297 294 289 285 283 279 273 268 269 271 270 269 269 269 269 268 266 266
157 128 55 78 47 350 283 184 323 282 212 204 199 191 190 184 180 182 179 150 148 150 147 157 166 154 139 137 158 137 128 131 143 153 149 147 167 197 206 149 139 151 193 222 220 221 240 246 239 218 198 187 168 156 151 145 138 134 133 127 119 111 103 76 338 320 312 308 304 299 294 293 293 293 291 286 281 278 276 274 274 274 273 271 269 266 267
157 52 90 107 105 285 218 133 109 250 200 196 200 198 198 197 172 160 146 128 149 148 145 148 150 141 133 144 175 107 115 156 167 149 147 178 186 181 147 137 162 184 216 231 229 231 240 246 239 202 180 166 152 145 145 143 136 134 133 133 135 138 128 331 310 303 304 306 305 304 303 302 301 299 296 294 290 285 280 276 275 273 271 269 266 264 265
58 36 99 111 110 209 205 200 227 240 220 213 217 211 203 267 311 171 165 188 156 132 122 116 120 118 116 134 172 134 121 168 172 148 155 198 178 126 118 216 214 208 212 221 229 237 244 247 241 181 157 148 143 141 143 142 139 137 135 135 140 150 178 254 274 293 312 316 313 311 309 306 304 301 297 293 290 286 283 281 278 274 270 268 267 265 265
128 194 350 114 149 191 196 195 247 260 235 218 218 221 218 259 254 147 144 145 140 137 135 134 139 134 118 120 181 157 126 155 181 177 173 181 157 134 174 222 224 216 213 225 236 241 241 238 189 148 146 144 143 143 145 146 147 147 145 144 151 166 189 213 269 335 332 325 318 313 309 305 303 300 295 292 291 290 289 288 286 281 276 272 269 267 264
116 122 86 102 181 205 193 31 311 288 260 207 176 182 205 210 187 128 133 141 138 137 132 130 151 160 150 125 130 153 172 197 191 170 162 187 195 190 196 212 219 218 215 222 234 240 239 156 124 135 142 144 145 145 147 150 151 151 149 150 155 160 158 77 16 355 339 328 320 313 309 305 303 298 294 293 294 296 299 298 292 286 281 275 270 267 264
66 101 133 189 220 209 160 187 246 260 225 142 150 173 198 201 155 138 155 157 138 123 118 108 112 124 118 98 116 177 209 201 171 161 188 201 199 192 203 217 222 220 211 211 220 218 171 140 139 144 147 150 151 150 150 151 153 154 153 151 145 127 92 52 15 351 337 326 318 313 309 307 302 297 294 294 296 299 303 303 297 292 288 282 275 269 265
17 44 183 237 253 225 155 171 250 260 238 137 129 155 185 182 140 148 159 151 143 152 170 174 123 94 114 155 181 185 177 163 159 184 211 208 182 176 209 226 228 220 209 203 196 178 162 158 156 154 153 154 156 155 153 153 155 155 152 145 132 112 90 62 14 348 336 327 320 316 314 312 309 305 301 300 300 302 303 304 304 303 297 290 283 276 269
162 194 197 225 229 208 190 217 276 263 246 245 247 203 203 174 108 145 161 163 170 178 179 155 116 130 164 182 176 144 152 183 194 201 211 212 195 195 214 226 226 214 207 194 171 164 170 171 166 159 155 156 157 156 154 153 155 156 151 142 130 118 109 87 6 343 338 335 334 333 331 327 324 322 318 313 309 308 307 307 311 313 309 303 299 292 279